{"data":{"norad_id":43076,"epoch":"2026-05-24T23:25:02.910432Z","epoch_age_seconds":67254,"freshness":"FRESH","line1":"1 43076U 17083G   26144.97572813  .00000055  00000+0  12705-4 0  9996","line2":"2 43076  86.3961 331.8673 0001718  93.7727 266.3666 14.34218271440846","mean_motion":14.34218271,"eccentricity":0.0001718,"inclination_deg":86.3961,"raan_deg":331.8673,"arg_perigee_deg":93.7727,"mean_anomaly_deg":266.3666,"bstar":1.2705e-5,"rev_number":44084,"period_min":100.40312755157,"perigee_km":776.43605453291,"apogee_km":778.8947882449,"semimajor_km":7155.8024213889,"source":"CELESTRAK","updated_at":"2026-05-25T13:38:14.806030Z"}}